Weather History for Savannah Hunter, GA

Change the Weather History Date:

Friday, December 13, 2013

  Actual Average Record
Temperature  
Mean Temperature 46 °F -  
Max Temperature 61 °F 60 °F 79 °F (2007)
Min Temperature 31 °F 41 °F 27 °F (2010)
Degree Days  
Heating Degree Days 19    
Moisture  
Dew Point 39 °F    
Average Humidity 72    
Maximum Humidity 94    
Minimum Humidity 41    
Precipitation  
Precipitation 0.00 in - - ()
Sea Level Pressure  
Sea Level Pressure 30.31 in    
Wind  
Wind Speed 3 mph (ENE)    
Max Wind Speed 10 mph    
Max Gust Speed -    
Visibility 10 miles    
Events      
Averages and records for this station are not official NWS values.
T = Trace of Precipitation, MM = Missing Value Source: NWS Daily Summary

Daily Weather History Graph

Daily Weather History Graph

Search for Another Location

Airport:

Trip Planner

Search our weather history database for the weather conditions in past years. The results will help you decide how hot, cold, wet, or windy it might be!

Date:

Astronomy

Dec. 13, 2013 Rise Set
Actual Time 7:16 AM EST 5:21 PM EST
Civil Twilight 6:49 AM EST 5:48 PM EST
Nautical Twilight 6:19 AM EST 6:18 PM EST
Astronomical Twilight 5:49 AM EST 6:48 PM EST
Moon 2:55 PM EST (12/13) 3:46 AM EST (12/13)
Length of Visible Light 10h 58m
Length of Day
10h 04m
Waxing Gibbous, 88% of the Moon is Illuminated
Dec 13
Waxing Gibbous
Dec 17
Full
Dec 25
Last Quarter
Jan 1
New
Jan 7
First Quarter

Hourly Weather History & Observations

Time (EST) Temp. Windchill Dew Point Humidity Pressure Visibility Wind Dir Wind Speed Gust Speed Precip Events Conditions
12:58 AM 37.6 °F - 33.3 °F 84% 30.35 in 10.0 mi Calm Calm - N/A   Clear
1:58 AM 34.9 °F - 32.7 °F 92% 30.36 in 10.0 mi Calm Calm - N/A   Clear
2:58 AM 35.2 °F - 32.5 °F 90% 30.34 in 10.0 mi Calm Calm - N/A   Clear
3:58 AM 34.0 °F - 32.0 °F 92% 30.33 in 10.0 mi Calm Calm - N/A   Clear
4:58 AM 31.5 °F - 29.8 °F 94% 30.33 in 10.0 mi Calm Calm - N/A   Clear
5:58 AM 36.1 °F - 32.9 °F 88% 30.35 in 10.0 mi Calm Calm - N/A   Clear
6:58 AM 38.1 °F - 34.7 °F 87% 30.37 in 10.0 mi NNE 1.2 mph - N/A   Clear
7:58 AM 38.7 °F - 34.3 °F 84% 30.38 in 10.0 mi NE 2.3 mph - N/A   Clear
8:58 AM 46.2 °F 44.1 °F 29.8 °F 53% 30.38 in 10.0 mi ENE 4.6 mph - N/A   Clear
9:58 AM 52.9 °F - 29.5 °F 41% 30.39 in 10.0 mi NE 5.8 mph - N/A   Clear
10:58 AM 56.5 °F - 35.1 °F 45% 30.38 in 10.0 mi ENE 5.8 mph - N/A   Clear
11:58 AM 59.0 °F - 38.1 °F 46% 30.34 in 10.0 mi East 9.2 mph - N/A   Clear
12:58 PM 59.4 °F - 42.4 °F 54% 30.31 in 10.0 mi East 10.4 mph - N/A   Clear
1:58 PM 61.0 °F - 45.0 °F 56% 30.28 in 10.0 mi ESE 8.1 mph - N/A   Clear
2:58 PM 61.3 °F - 45.7 °F 56% 30.26 in 10.0 mi East 10.4 mph - N/A   Clear
3:58 PM 58.8 °F - 46.0 °F 63% 30.27 in 10.0 mi NE 8.1 mph - N/A   Clear
4:58 PM 56.3 °F - 45.3 °F 67% 30.25 in 10.0 mi ENE 6.9 mph - N/A   Clear
5:58 PM 54.9 °F - 45.0 °F 69% 30.26 in 10.0 mi NE 3.5 mph - N/A   Mostly Cloudy
6:58 PM 52.7 °F - 44.1 °F 72% 30.25 in 10.0 mi Variable 4.6 mph - N/A   Partly Cloudy
7:58 PM 51.4 °F - 44.1 °F 76% 30.22 in 10.0 mi ENE 5.8 mph - N/A   Mostly Cloudy
8:58 PM 52.3 °F - 44.8 °F 75% 30.25 in 10.0 mi NE 3.5 mph - N/A   Overcast
9:58 PM 50.9 °F - 44.6 °F 79% 30.23 in 10.0 mi ENE 3.5 mph - N/A   Clear
10:58 PM 50.2 °F - 44.4 °F 81% 30.23 in 10.0 mi ENE 2.3 mph - N/A   Partly Cloudy
11:58 PM 50.7 °F - 45.7 °F 83% 30.21 in 10.0 mi ENE 3.5 mph - N/A   Partly Cloudy